Hourly Data Report for September 14, 2017

All times are specified in Local Standard Time (LST). Add 1 hour to adjust for Daylight Saving Time where and when it is observed.

SATURNA ISLAND CS
BRITISH COLUMBIA

48°47'02.067" N
123°02'41.082" W
24.40 m
1017101
71473
WEZ

Download Data

Hourly Data (September 2017)
Hourly Data Report for September 14, 2017
Temp Definition
°C
Dew Point Temp Definition
°C
Rel Hum Definition
%
Wind Dir Definition
10's deg

Wind Spd Definition
km/h
Visibility Definition
km
Stn Press Definition
kPa
Hmdx Definition


Wind Chill Definition


Weather Definition


TIME
00:00 15.3 12.0 81 27 5   101.02     LegendNANA
01:00 15.5 11.6 78 31 9   101.04     LegendNANA
02:00 15.4 11.0 75 31 11   101.06     LegendNANA
03:00 15.4 10.5 73 30 6   101.08     LegendNANA
04:00 15.1 10.8 76 29 9   101.12     LegendNANA
05:00 14.7 10.8 78 28 7   101.15     LegendNANA
06:00 14.8 10.9 78 29 8   101.20     LegendNANA
07:00 15.5 10.7 73 29 9   101.24     LegendNANA
08:00 16.0 10.5 70 30 11   101.25     LegendNANA
09:00 17.0 10.3 65 29 7   101.26     LegendNANA
10:00 17.4 10.4 64 29 9   101.26     LegendNANA
11:00 18.3 10.2 59 30 8   101.24     LegendNANA
12:00 18.9 10.7 59 27 5   101.21     LegendNANA
13:00 18.7 9.6 55 30 7   101.21     LegendNANA
14:00 18.7 9.0 53 30 6   101.18     LegendNANA
15:00 19.2 7.7 47 32 7   101.13     LegendNANA
16:00 18.1 7.4 50 32 7   101.13     LegendNANA
17:00 17.4 7.0 50 31 6   101.13     LegendNANA
18:00 17.5 5.7 46 31 4   101.14     LegendNANA
19:00 17.6 3.9 40 34 5   101.15     LegendNANA
20:00 18.1 1.7 33 32 4   101.17     LegendNANA
21:00 17.3 2.5 37 27 3   101.19     LegendNANA
22:00 16.0 4.9 48 23 9   101.24     LegendNANA
23:00 15.1 8.7 66 33 7   101.28     LegendNANA

Notes on Data Quality.

Legend

  • E = Estimated
  • M = Missing
  • NA = Not Available
  • ‡ = Partner data that is not subject to review by the National Climate Archives
Date modified: